THOR ABLESTAR DEB, 545

Orbit data source: Space-Track

THOR ABLESTAR DEB, 545 is space debris in LEO originally from a launch on Thu, 29 Jun 1961 UTC launched from the Air Force Eastern Test Range (AFETR). Debris objects in space refer to the collection of defunct objects orbiting the Earth. Examples of debris include non-operational satellites, rocket bodies, and fragments generated from explosions, collisions, or faulty payload assembly.

Loading next visibility...
Identifier
545, 1961-015GE
Orbit
LEO
Country
Flag of USUS
Related business
Manufacturer
Unknown
Mission
Spacecraft
Bus & Motor
Unknown
Mass
Unknown
Launch date (UTC)
1961-06-29 (64 years ago)
Launch vehicle
Unknown
Launch site
Air Force Eastern Test Range (AFETR)
Object type
Payload
Rocket body
Debris
Shape & HBR
Unknown
Radar Cross Section
Small (<0.1 m²)

Expand to show TLE details & history
Last TLE update: 20 hours ago

TLE from 20 hours ago
0 THOR ABLESTAR DEB
1 00545U 61015GE  25261.05277461  .00000182  00000-0  25709-3 0  9992
2 00545  67.2319 186.0672 0164947 253.7048 104.5828 13.70818196192985
Epoch: 2025-09-18T01:15Z
TLE epoch observation values (Epoch: 2025-09-18T01:15:59.726Z)
Latitude
0.00004°
Longitude
169.84846°
Altitude
1,031.222 km
Speed
7.32 km/s
True Right ascension
12h 24m 16s
True Declination
0° 00' 00"
Sunlit
Object was in daylight at epoch
Visualization orbit readout
Latitude
Unknown
Longitude
Unknown
Altitude
Unknown
Speed
Unknown
Apparent Right ascension
Unknown
Apparent Declination
Unknown
Sunlit
N/A
Visualization observer readout
Local Sidereal Time
14:28:24
Azimuth
Unknown
Elevation
Unknown
Doppler factor
Unknown
Orbital elements
Apogee altitude
1,116.612 km
Perigee altitude
873.377 km
Semi-major axis
7,373.132 km
Eccentricity
0.01649
Inclination
67.2319°
RAAN
186.0672°
Arg. of periapsis
253.7048°
True anomaly
106.40231°
Mean anomaly
104.5828°
Eccentric anomaly
105.49353°
Mean motion
3.42819 °/min
Orbital period
105.01 mins
BSTAR
0.00025709
Loading maneuver chart data...
Computing Atmospheric mass density...

Documentation

Showing up to 5 results
|